sat.trackr.live / text

‹ back to catalog

TJS-12

NORAD 62374 · 2024-246A

PAYLOAD ACTIVE UNKNOWN

§ Identity

Operator
Country
PRC
Launch date
2024-12-20
Launch site
XICLF
Launch vehicle
Mass (kg)
RCS (m²)

Purposes: comms

External: N2YO · Heavens-Above · Gunter

§ Orbital elements

Epoch: 2026-09-19T17:40:02.313696Z

Period
1,436.15 min
Inclination
0.4864°
Eccentricity
0.0001254
Mean motion
1.00267961 rev/d
Perigee alt
35,782.4 km
Apogee alt
35,793.0 km
Semi-major
42,165.8 km
B*
0.0000e+0
RAAN
312.6129°
Arg perigee
140.9448°
Mean anomaly
316.5372°
Rev number
651

§ Raw data

TJS-121 62374U 24246A   26262.73613789 -.00000237  00000+0  00000+0 0  99932 62374   0.4864 312.6129 0001254 140.9448 316.5372  1.00267961  6513

JSON: /api/v1/satellites/62374 · /tle

For live sub-satellite position, see the globe view (requires WebGL).

§ Visibility from observer

Set your observer location to see the next 7 days of passes ≥ 10°. The values pass through the URL so the page stays shareable.

No JS? Fill the form by hand. The geolocation button needs JavaScript.